Regional Weather Roundup
Issued by NWS Sioux Falls, SD

Home | Current Version | Previous Version | Graphics & Text | Print | Product List | Glossary On
Versions: 1 2 3 4 5 6 7 8 9 10 11 12 13 14 15 16 17 18 19 20 21 22 23 24 25 26 27 28 29 30 31 32 33 34 35 36 37 38 39 40 41 42 43 44 45 46 47 48 49 50
000
ASUS43 KFSD 032110
RWRFSD

WEATHER ROUNDUP FOR SE SOUTH DAKOTA/SW MINNESOTA/NW IOWA
NATIONAL WEATHER SERVICE SIOUX FALLS SD
300 PM CST SAT DEC 03 2016

NOTE: "FAIR" INDICATES FEW OR NO CLOUDS BELOW 12,000 FEET WITH NO
SIGNIFICANT WEATHER AND OR OBSTRUCTIONS TO VISIBILITY.


SDZ038>040-050-052>070-032200-
SOUTHEAST SOUTH DAKOTA

CITY           SKY/WX    TMP DP  RH WIND       PRES   REMARKS
BROOKINGS      LGT SNOW  34  30  86 S13       30.06F VSB 1   WCI  25
CHAMBERLAIN    SUNNY     40  35  83 SE13      29.94F
HURON          CLOUDY    36  34  92 SE15      30.00F
MADISON        LGT SNOW  32  32 100 S14G21    30.07S VSB 1   WCI  22
MITCHELL       CLOUDY    35  34  96 SE20      30.03F WCI  24
SIOUX FALLS    FLURRIES  35  33  92 S15       30.11F WCI  25
WINNER         FAIR      49  25  39 SW7       29.91F
YANKTON        CLOUDY    37  30  75 SE15      30.09F
$$

MNZ071-072-080-081-089-090-097-098-032200-
SOUTHWEST MINNESOTA

CITY           SKY/WX    TMP DP  RH WIND       PRES   REMARKS
FAIRMONT       CLOUDY    36  31  82 SE8       30.19F
JACKSON        CLOUDY    34  30  86 S13       30.17S WCI  25
LUVERNE        CLOUDY    34  32  93 S16       30.14S WCI  23
MARSHALL       MOSUNNY   37  31  78 S13       30.12F
MONTEVIDEO     CLOUDY    34  28  80 S13       30.15F WCI  25
PIPESTONE      LGT SNOW  34  32  93 S17       30.09F WCI  23
REDWOOD FALLS  CLOUDY    35  28  75 SE16      30.15F WCI  25
TRACY          PTSUNNY   37  32  83 S13       30.12F
WINDOM         CLOUDY    37  30  75 S12G17    30.15S
WORTHINGTON    CLOUDY    35  31  85 S17       30.14F WCI  25
$$

IAZ001>003-012>014-020>022-031-032-NEZ013-014-SDZ071-032200-
NORTHWEST IOWA

CITY           SKY/WX    TMP DP  RH WIND       PRES   REMARKS
CHEROKEE       LGT SNOW  33  33 100 S6        30.19F WCI  28
DENISON        LGT SNOW  34  34 100 S3        30.19S
ESTHERVILLE    CLOUDY    36  31  82 S13       30.18S
LE MARS        CLOUDY    34  32  93 S15       30.17F FOG     WCI  24
ORANGE CITY    LGT SNOW  32  32 100 S9        30.16F WCI  24
SHELDON        MIX PCPN  34  34 100 S14G26    30.15F WCI  24
SIOUX CITY     LGT SNOW  35  33  92 SE9       30.18F VSB 1   WCI  28
SPENCER        MIX PCPN  36  33  89 S20       30.18F
STORM LAKE     SNOW      32  32 100 S10       30.20S VSB 1/2 WCI  24
$$

ABBREVIATIONS USED IN REMARKS
   TC - TEMPERATURE IN CELSIUS
  WCI - WIND CHILL INDEX
   HX - HEAT INDEX
  VSB - VISIBILITY




USA.gov is the U.S. government's official web portal to all federal, state and local government web resources and services.